Location: Pasadena, ca
(34.1243°N, 118.1037°W)
Time: 10:48:31
(UTC-07:00)

Vanguard 1 Rocket - All Passes

Search period start: 21 October 2017 00:00
Search period end: 31 October 2017 00:00
Orbit: 655 x 4222 km, 34.3° (Epoch: 20 October)

Date Brightness Start Highest point End Pass type
(mag) Time Alt. Az. Time Alt. Az. Time Alt. Az.
21 Oct - 04:55:18 10° SSW 05:05:49 26° SSE 05:12:19 10° E visible
21 Oct - 07:23:08 10° WSW 07:32:12 60° SSE 07:37:25 10° E daylight
21 Oct - 09:51:36 10° W 09:57:17 87° N 10:01:41 10° E daylight
21 Oct - 12:17:41 10° W 12:21:53 43° SSW 12:26:48 10° SE daylight
21 Oct - 14:45:12 10° SW 14:47:02 11° SSW 14:49:06 10° S daylight
22 Oct - 03:43:38 10° S 03:53:32 19° SSE 04:00:21 10° ESE visible
22 Oct - 06:09:53 10° SW 06:20:57 46° SSE 06:27:02 10° E visible
22 Oct - 08:39:12 10° W 08:46:31 87° S 08:51:12 10° E daylight
22 Oct - 11:06:36 10° W 11:11:21 68° SSW 11:15:51 10° ESE daylight
22 Oct - 13:32:41 10° WSW 13:35:56 19° SSW 13:39:55 10° SSE daylight
23 Oct - 02:34:13 10° S 02:40:42 13° SSE 02:45:59 10° SE visible
23 Oct - 04:56:39 10° SW 05:09:14 36° SSE 05:16:22 10° E visible
23 Oct - 07:26:02 10° WSW 07:35:34 73° SSE 07:40:54 10° E daylight
23 Oct - 09:54:56 10° W 10:00:44 88° S 10:05:08 10° E daylight
23 Oct - 12:21:19 10° W 12:25:13 31° SSW 12:29:37 10° SE daylight
24 Oct - 03:43:53 10° SSW 03:56:59 27° SSE 04:05:03 10° E visible
24 Oct - 06:12:19 10° WSW 06:24:18 58° SSE 06:30:38 10° E visible
24 Oct - 08:42:26 10° W 08:49:56 88° N 08:54:40 10° E daylight
24 Oct - 11:10:01 10° W 11:14:42 52° SSW 11:19:05 10° ESE daylight
24 Oct - 13:37:49 10° SW 13:39:17 11° SSW 13:40:52 10° S daylight
25 Oct - 02:32:18 10° S 02:44:10 20° SSE 02:52:29 10° ESE visible
25 Oct - 04:58:27 10° SW 05:12:36 46° SSE 05:20:07 10° E visible
25 Oct - 07:29:04 10° WSW 07:38:57 83° S 07:44:23 10° E daylight
25 Oct - 09:58:15 10° W 10:04:09 78° SSW 10:08:32 10° ESE daylight
25 Oct - 12:25:10 10° WSW 12:28:30 21° SSW 12:32:06 10° SSE daylight
26 Oct - 01:23:53 10° SSE 01:30:49 12° SE 01:36:39 10° SE visible
26 Oct - 03:44:51 10° SSW 04:00:20 36° SSE 04:09:10 10° E visible
26 Oct - 06:14:58 10° WSW 06:27:38 70° SSE 06:34:08 10° E visible
26 Oct - 08:45:41 10° W 08:53:23 89° N 08:58:09 10° E daylight
26 Oct - 11:13:28 10° W 11:18:00 38° SSW 11:22:08 10° SE daylight
27 Oct - 02:32:06 10° SSW 02:47:31 27° SSE 02:57:22 10° E visible
27 Oct - 05:00:33 10° SW 05:15:54 57° SSE 05:23:44 10° E visible
27 Oct - 07:32:10 10° W 07:42:20 90° S 07:47:52 10° E daylight
27 Oct - 10:01:34 10° W 10:07:31 65° SSW 10:11:54 10° ESE daylight
27 Oct - 12:29:39 10° WSW 12:31:44 13° SSW 12:33:52 10° S daylight
28 Oct - 01:21:04 10° S 01:34:11 19° SE 01:43:53 10° ESE visible
28 Oct - 03:46:17 10° SW 04:03:37 45° SSE 04:12:58 10° E visible
28 Oct - 06:17:48 10° WSW 06:30:58 80° SSE 06:37:36 10° E visible
28 Oct - 08:48:56 10° W 08:56:48 86° S 09:01:36 10° E daylight
28 Oct - 11:17:05 10° W 11:21:13 26° SSW 11:24:58 10° SSE daylight
29 Oct - 00:15:07 10° SSE 00:20:24 11° SE 00:25:11 10° SE visible
29 Oct - 02:32:42 10° SSW 02:50:46 35° SSE 03:01:35 10° E visible
29 Oct - 05:02:55 10° WSW 05:19:11 68° SSE 05:27:14 10° E visible
29 Oct - 07:35:19 10° W 07:45:44 88° N 07:51:20 10° E daylight
29 Oct - 10:04:53 10° W 10:10:49 50° SSW 10:15:09 10° SE daylight
30 Oct - 01:20:24 10° SSW 01:37:24 26° SE 01:49:03 10° E visible
30 Oct - 03:48:05 10° SW 04:06:50 55° SSE 04:16:35 10° E visible
30 Oct - 06:20:45 10° WSW 06:34:18 87° S 06:41:04 10° E visible
30 Oct - 08:52:08 10° W 09:00:10 76° SSW 09:05:02 10° ESE daylight
30 Oct - 11:20:59 10° WSW 11:24:21 18° SW 11:27:23 10° S daylight
